Wind_Speed
17 19 18 17 18 19 19 19 19 18 18 19 19 19 19 20 19 19 20 20 19 17 16 17 16 15 15 15 14 14 14 14 14 14 14 15 16 16 15 15 15 15 16 17
18 19 17 18 19 19 19 19 19 19 20 20 20 19 19 19 20 21 20 20 20 18 18 17 16 15 15 15 15 14 14 14 14 14 15 15 15 15 16 16 16 16 17 17
18 17 18 20 20 20 19 19 20 20 19 20 20 20 19 20 21 20 20 20 19 19 18 17 16 16 16 15 14 15 15 15 15 15 15 16 16 16 17 17 16 17 17 17
20 19 20 21 21 21 21 21 21 21 21 20 20 20 21 20 20 20 20 21 20 20 21 20 15 15 16 15 15 15 16 16 16 16 16 16 17 17 17 18 17 17 18 18
20 20 21 22 21 22 22 21 19 20 20 21 21 21 22 21 22 21 20 20 21 21 22 19 16 16 17 16 17 17 17 17 17 18 18 18 18 18 18 18 18 19 19 18
21 20 21 21 21 21 21 20 20 20 20 23 21 22 23 22 23 22 20 21 22 22 21 19 17 17 18 18 18 18 18 18 18 19 19 19 19 19 19 19 19 18 18 19
20 20 20 20 21 21 20 20 21 21 21 22 20 22 23 22 21 21 21 21 22 21 20 19 18 19 20 19 20 19 19 19 19 20 20 20 20 20 20 20 19 19 19 19
19 20 19 20 21 20 19 20 22 21 19 18 19 21 21 21 21 21 22 21 22 22 21 20 20 20 19 21 21 21 21 20 20 21 21 21 21 21 20 20 19 19 19 19
19 19 17 19 20 21 19 20 21 21 19 19 19 20 21 20 21 22 23 22 22 22 22 22 21 21 21 22 22 21 21 21 21 21 21 21 21 22 21 21 20 20 20 19
22 20 19 19 20 20 20 19 19 21 21 20 19 19 21 20 20 22 23 22 22 22 21 21 22 22 21 22 22 21 22 22 22 22 22 22 23 23 22 21 21 21 20 20
23 24 21 21 21 20 20 21 22 21 22 22 20 21 21 20 21 22 22 23 22 22 22 22 21 22 22 23 23 23 24 23 22 23 23 23 23 22 22 21 21 21 21 21
24 24 24 22 21 21 20 21 22 23 22 22 22 22 22 21 20 21 23 22 22 23 23 23 22 23 22 23 24 24 24 23 24 24 23 23 23 22 22 21 21 22 22 22
25 25 25 23 20 20 21 21 23 23 23 22 21 21 22 23 21 21 22 23 23 23 22 23 23 23 24 24 24 24 24 24 24 23 22 22 22 21 21 21 22 22 22 21
27 26 26 24 20 20 22 21 21 23 24 23 22 21 24 25 24 23 24 26 25 24 24 24 24 24 24 23 23 24 24 23 23 23 22 22 21 20 20 20 21 21 21 21
27 28 26 25 23 23 24 23 21 23 22 22 22 22 24 25 25 25 23 24 23 23 24 24 24 24 24 23 23 22 22 22 22 22 21 22 21 21 21 21 21 21 20 20
27 28 27 26 25 25 24 23 23 24 23 23 22 22 24 24 26 25 24 24 23 24 24 23 23 23 23 22 22 22 21 21 21 21 21 21 21 21 21 20 20 21 21 20
26 27 27 27 26 26 25 24 23 24 24 24 24 23 24 26 25 25 25 25 25 26 25 24 23 23 23 23 22 21 21 21 21 21 20 20 20 20 20 20 20 21 21 20
26 26 26 25 25 27 24 24 25 24 23 25 26 25 26 27 26 26 24 24 26 26 24 24 24 23 23 24 23 22 22 21 21 20 21 21 20 20 20 19 20 20 20 20
26 26 26 25 25 27 26 25 25 26 26 27 28 27 27 26 25 25 24 23 23 23 22 23 23 24 24 24 24 23 22 21 20 20 20 20 20 19 19 19 20 20 20 20
25 26 26 26 26 27 26 26 26 25 27 26 27 27 26 25 26 25 24 23 23 22 22 23 24 24 23 23 23 22 22 22 21 21 20 20 20 20 20 20 20 20 21 21
25 26 26 26 26 26 24 24 26 27 27 26 27 27 26 26 27 24 22 23 23 22 22 22 22 23 23 22 21 21 21 21 21 20 20 20 20 20 21 21 21 21 21 21
24 24 25 24 24 23 25 25 27 28 27 27 26 27 27 26 25 24 23 23 22 22 21 21 21 21 21 21 20 20 21 21 21 20 20 20 20 20 20 20 20 20 21 20
24 25 25 26 25 24 25 26 28 27 27 26 25 26 26 25 24 24 24 23 22 21 20 20 20 20 20 20 20 20 21 21 21 20 19 19 19 19 19 20 20 20 21 22
23 25 26 26 26 25 24 26 26 27 26 26 26 26 24 23 23 24 24 24 23 22 21 21 20 20 19 19 19 19 20 20 20 20 20 19 19 19 18 19 19 20 21 21
24 24 24 25 25 25 25 24 25 25 25 25 24 23 22 23 23 23 23 24 23 22 22 21 20 20 19 19 19 18 18 18 19 19 20 20 20 19 19 18 19 19 19 20
24 24 24 25 25 25 26 26 25 26 25 25 24 24 24 21 22 23 22 21 21 21 21 20 19 19 19 19 19 18 18 18 19 20 20 20 19 19 19 19 19 19 20 20
Wind_Direction
242 244 249 253 255 255 250 249 252 253 255 258 264 267 268 268 267 269 271 271 273 276 277 277 278 278 279 282 283 282 283 286 289 292 293 291 285 286 285 286 287 287 283 282
246 249 253 253 252 251 252 254 259 260 257 257 261 264 266 271 270 273 274 275 276 273 269 273 275 273 275 279 281 282 285 285 287 289 290 292 288 286 286 287 288 287 286 283
246 247 249 251 251 248 250 255 260 260 259 260 265 266 265 264 267 270 273 275 275 273 269 271 271 270 272 275 279 281 284 285 286 289 290 291 289 288 289 289 289 288 287 285
245 242 245 249 251 251 252 255 257 258 256 258 261 263 260 263 264 268 270 271 272 271 268 270 266 267 269 273 276 279 282 284 286 289 290 290 291 291 290 289 287 287 288 287
245 243 244 247 250 251 250 254 256 258 259 260 258 257 257 264 263 269 270 272 271 267 269 271 266 265 267 271 274 277 281 283 285 288 289 289 290 291 289 287 286 287 287 285
244 244 245 247 248 249 249 252 255 256 259 261 257 258 255 259 264 269 269 268 267 266 266 266 265 265 268 270 273 277 279 281 284 287 289 290 288 288 289 288 285 285 285 284
250 247 246 249 249 249 247 250 253 254 254 259 257 256 253 259 264 266 268 266 265 264 264 267 267 268 268 271 274 276 279 279 282 285 286 287 286 287 287 286 285 283 284 284
254 251 251 254 253 251 246 248 250 252 259 264 263 258 256 261 264 269 271 267 266 267 268 267 267 269 271 271 273 275 278 278 279 282 283 284 284 284 284 283 284 282 284 284
249 253 249 250 253 252 246 247 251 252 253 260 261 264 262 254 259 262 265 266 266 270 269 266 263 266 271 272 273 275 278 278 279 281 281 282 283 282 281 281 282 282 283 281
242 239 238 242 246 248 244 246 249 248 251 254 256 261 260 257 265 265 264 266 268 270 269 267 267 269 270 273 272 272 276 278 279 280 280 281 279 280 278 278 279 279 280 280
242 240 237 237 238 243 244 243 243 246 249 252 256 259 262 261 262 265 266 267 266 267 268 268 268 270 272 271 273 274 279 276 276 278 278 279 279 277 275 277 277 277 277 276
241 237 239 240 240 242 246 246 243 244 247 247 252 261 265 265 263 262 264 266 266 266 266 266 268 270 273 273 272 274 277 275 275 276 277 277 278 277 275 274 275 276 276 275
244 241 243 243 240 242 246 248 245 247 252 251 254 260 263 263 261 261 262 264 267 266 267 269 270 273 274 273 274 275 276 274 274 276 276 274 276 277 275 273 274 276 275 274
245 244 244 243 238 238 245 248 246 246 252 254 251 255 260 262 263 262 261 264 266 269 269 270 271 274 275 273 274 274 275 275 273 274 275 275 276 276 276 274 276 276 275 273
244 246 247 245 244 242 245 247 250 251 252 255 256 254 261 265 265 265 263 264 264 266 269 269 270 271 271 270 272 273 274 274 275 275 274 275 277 277 275 275 275 276 276 274
248 249 249 248 247 248 248 249 252 252 254 253 253 255 263 267 267 268 270 269 265 266 269 270 271 272 271 272 274 273 273 272 273 273 273 274 275 276 274 275 275 275 274 273
250 252 251 252 249 251 245 247 250 252 250 256 256 255 259 262 262 265 269 269 266 266 269 272 272 272 270 271 273 274 273 272 272 274 273 273 273 273 276 279 277 274 273 272
250 250 252 252 250 254 251 250 250 253 252 253 256 259 259 260 261 263 263 265 264 266 270 271 270 269 270 271 271 272 273 273 274 272 272 272 272 272 274 276 275 272 271 271
250 249 251 251 253 254 253 251 251 252 250 249 252 256 258 260 262 263 266 266 266 266 269 270 270 269 270 271 270 270 271 275 277 275 272 271 271 272 274 274 276 275 274 276
249 250 250 249 252 253 253 251 250 251 252 252 253 253 254 258 261 261 263 264 267 269 270 271 270 270 270 270 270 268 270 273 276 277 274 272 274 274 274 275 276 276 275 275
249 251 251 251 254 254 254 250 248 249 251 252 252 254 254 257 260 261 262 263 265 268 271 272 272 270 269 269 267 267 268 270 272 274 274 274 274 273 273 274 275 275 274 274
246 249 249 252 255 255 253 252 249 250 251 252 252 253 255 257 259 260 260 261 265 267 270 272 271 271 268 266 266 267 268 269 269 269 271 272 272 272 273 274 274 273 273 274
246 246 248 250 251 256 255 253 254 252 252 252 251 251 253 255 256 258 259 261 264 268 269 270 269 269 267 265 265 267 267 267 267 268 271 273 274 275 274 273 273 273 274 274
247 249 251 251 250 254 252 252 252 253 254 252 254 253 251 253 258 260 260 260 263 266 268 268 267 266 266 264 263 266 266 267 268 269 270 271 274 278 278 274 275 276 276 275
248 250 251 252 252 253 255 255 257 257 255 253 255 258 252 252 256 260 262 262 263 265 265 266 267 268 266 263 264 266 266 267 268 270 269 269 273 277 279 279 280 279 281 279
250 250 251 252 253 255 256 256 258 257 255 254 254 256 255 257 258 259 258 260 261 263 263 264 265 265 265 265 266 266 267 267 268 271 272 271 272 274 277 279 281 282 284 283
Height
5831 5833 5835 5838 5840 5842 5843 5844 5845 5847 5849 5848 5847 5848 5848 5846 5846 5847 5847 5846 5846 5846 5846 5847 5848 5848 5847 5847 5847 5847 5847 5847 5847 5846 5846 5845 5845 5844 5844 5844 5843 5843 5843 5843
5827 5829 5832 5834 5836 5837 5838 5840 5841 5843 5843 5843 5843 5844 5843 5843 5843 5843 5843 5842 5842 5842 5842 5843 5844 5844 5844 5844 5844 5844 5844 5844 5844 5844 5843 5842 5842 5841 5841 5841 5840 5840 5840 5840
5823 5828 5829 5830 5831 5833 5834 5836 5837 5836 5837 5838 5839 5839 5839 5839 5838 5838 5838 5838 5838 5838 5837 5839 5840 5840 5840 5841 5841 5841 5841 5841 5841 5840 5840 5839 5839 5838 5838 5837 5837 5837 5836 5836
5819 5822 5824 5825 5827 5828 5829 5831 5832 5832 5832 5833 5835 5834 5835 5834 5834 5834 5835 5835 5834 5835 5834 5835 5835 5836 5836 5837 5837 5838 5838 5838 5838 5837 5836 5836 5836 5835 5835 5834 5834 5833 5833 5833
5815 5817 5819 5820 5823 5823 5824 5826 5827 5827 5827 5828 5830 5830 5831 5830 5830 5830 5830 5831 5831 5830 5830 5830 5830 5831 5832 5833 5833 5834 5834 5834 5834 5833 5833 5832 5832 5831 5831 5830 5830 5829 5829 5829
5810 5812 5814 5815 5817 5818 5819 5821 5821 5821 5822 5823 5824 5825 5825 5826 5825 5825 5825 5826 5826 5825 5825 5826 5827 5827 5827 5828 5829 5829 5830 5830 5830 5829 5828 5828 5828 5827 5827 5826 5826 5825 5825 5825
5805 5807 5808 5810 5811 5812 5814 5816 5816 5816 5817 5818 5819 5819 5820 5820 5820 5820 5820 5820 5820 5821 5822 5822 5822 5823 5823 5824 5824 5825 5825 5825 5825 5825 5825 5824 5824 5823 5823 5822 5822 5822 5821 5821
5800 5802 5804 5805 5806 5808 5809 5811 5813 5813 5814 5815 5815 5814 5816 5816 5816 5816 5816 5815 5815 5816 5817 5818 5818 5818 5818 5819 5820 5820 5820 5821 5821 5820 5820 5819 5819 5819 5818 5818 5818 5818 5817 5817
5795 5797 5800 5801 5801 5803 5804 5806 5808 5809 5809 5810 5811 5811 5811 5811 5811 5811 5811 5811 5811 5811 5813 5813 5813 5813 5814 5814 5815 5815 5815 5815 5815 5815 5815 5814 5814 5814 5814 5813 5813 5813 5813 5812
5789 5791 5794 5796 5797 5797 5799 5801 5802 5803 5804 5805 5807 5806 5805 5805 5806 5806 5806 5805 5806 5807 5808 5808 5808 5809 5809 5809 5809 5809 5810 5810 5810 5810 5809 5809 5809 5809 5808 5808 5808 5808 5808 5808
5783 5785 5787 5789 5791 5793 5795 5796 5796 5798 5800 5801 5802 5803 5800 5800 5802 5801 5801 5800 5801 5802 5802 5803 5803 5804 5804 5804 5804 5804 5804 5804 5804 5804 5804 5803 5803 5803 5803 5803 5803 5803 5803 5802
5776 5778 5780 5783 5785 5787 5789 5790 5791 5792 5793 5794 5795 5799 5795 5796 5796 5796 5796 5795 5796 5796 5797 5797 5798 5798 5798 5798 5798 5798 5798 5799 5799 5798 5798 5798 5798 5797 5797 5797 5797 5797 5797 5797
5771 5773 5775 5777 5781 5782 5783 5784 5785 5787 5787 5788 5789 5793 5791 5790 5790 5790 5790 5790 5790 5790 5791 5791 5792 5792 5792 5792 5792 5792 5793 5793 5793 5793 5792 5792 5792 5792 5792 5792 5792 5792 5791 5791
5764 5766 5769 5772 5774 5776 5777 5778 5779 5781 5782 5782 5784 5785 5785 5784 5783 5783 5784 5785 5785 5785 5786 5786 5786 5786 5786 5787 5787 5787 5787 5787 5786 5787 5787 5786 5786 5786 5786 5786 5786 5786 5785 5786
5758 5760 5762 5764 5767 5769 5770 5771 5773 5774 5775 5777 5778 5778 5778 5778 5778 5778 5778 5778 5778 5779 5780 5780 5780 5780 5781 5781 5781 5781 5781 5781 5781 5781 5781 5781 5781 5781 5781 5780 5780 5780 5780 5780
5751 5753 5755 5758 5761 5762 5763 5765 5766 5768 5769 5770 5770 5771 5771 5772 5772 5772 5772 5772 5772 5773 5774 5774 5774 5775 5775 5775 5776 5776 5776 5776 5776 5776 5776 5776 5776 5776 5775 5775 5775 5775 5775 5774
5744 5747 5749 5751 5753 5754 5756 5758 5760 5761 5762 5764 5764 5765 5765 5766 5766 5766 5767 5766 5767 5767 5768 5768 5769 5769 5769 5770 5770 5770 5770 5770 5770 5770 5770 5770 5771 5771 5770 5770 5769 5769 5769 5769
5739 5741 5742 5744 5746 5746 5751 5752 5754 5755 5755 5757 5758 5759 5760 5760 5760 5760 5760 5761 5761 5761 5762 5762 5763 5763 5763 5764 5764 5764 5765 5765 5764 5765 5765 5765 5765 5765 5765 5765 5764 5764 5764 5764
5732 5734 5736 5738 5738 5740 5744 5745 5746 5747 5748 5749 5751 5752 5753 5753 5754 5754 5755 5755 5755 5756 5756 5756 5756 5757 5757 5757 5758 5758 5759 5759 5759 5759 5759 5759 5759 5760 5759 5759 5759 5758 5758 5758
5726 5727 5729 5731 5732 5733 5738 5739 5739 5740 5740 5742 5744 5745 5746 5747 5748 5749 5749 5749 5750 5750 5750 5750 5750 5750 5751 5751 5752 5752 5753 5754 5754 5754 5753 5754 5754 5754 5754 5754 5753 5753 5752 5752
5720 5721 5722 5724 5725 5726 5729 5730 5732 5734 5734 5735 5736 5737 5738 5740 5741 5742 5743 5744 5744 5744 5744 5744 5744 5744 5745 5745 5746 5747 5747 5748 5748 5748 5748 5748 5748 5748 5748 5748 5747 5747 5747 5746
5714 5715 5716 5717 5718 5722 5722 5723 5724 5725 5726 5727 5729 5730 5732 5732 5733 5735 5736 5737 5737 5738 5738 5738 5738 5738 5739 5739 5740 5741 5742 5742 5742 5742 5742 5742 5742 5742 5742 5741 5741 5741 5741 5741
5707 5709 5709 5712 5714 5714 5714 5715 5716 5717 5718 5720 5721 5723 5725 5726 5728 5729 5730 5731 5731 5732 5732 5732 5732 5733 5733 5734 5734 5735 5736 5736 5736 5736 5736 5736 5736 5736 5736 5735 5735 5735 5734 5734
5701 5702 5703 5704 5705 5706 5706 5707 5709 5710 5712 5713 5714 5716 5717 5719 5721 5722 5723 5724 5725 5726 5726 5726 5727 5727 5728 5728 5729 5730 5730 5730 5730 5730 5731 5730 5730 5730 5730 5729 5729 5729 5729 5728
5694 5695 5697 5698 5699 5699 5700 5701 5703 5704 5706 5707 5708 5709 5710 5712 5714 5716 5717 5718 5719 5719 5720 5720 5721 5721 5722 5722 5723 5724 5724 5724 5724 5724 5725 5725 5725 5725 5724 5724 5723 5723 5723 5722
5688 5689 5690 5691 5692 5693 5694 5695 5696 5698 5699 5701 5703 5704 5705 5705 5707 5709 5710 5711 5712 5713 5714 5715 5715 5716 5716 5717 5718 5718 5718 5719 5719 5719 5719 5719 5719 5719 5719 5718 5718 5718 5717 5716